Stations météo

réclame
Mon MeteoGroup
Arvidsjaur, Suède (2149): Température de l'air & dewpoint: 14.10.2018 04:00:00 - 20.10.2018 04:00:00 (CEST)Arvidsjaur, Suède (2149): Vitesse du vent & gusts: 14.10.2018 04:00:00 - 20.10.2018 04:00:00 (CEST)Arvidsjaur, Suède (2149): Direction du vent: 14.10.2018 04:00:00 - 20.10.2018 04:00:00 (CEST)Arvidsjaur, Suède (2149): reduced air pressure: 14.10.2018 04:00:00 - 20.10.2018 04:00:00 (CEST)Arvidsjaur, Suède (2149): visibility: 14.10.2018 04:00:00 - 20.10.2018 04:00:00 (CEST)Arvidsjaur, Suède (2149): Quantités de précipitations: 14.10.2018 04:00:00 - 20.10.2018 04:00:00 (CEST)
Date & Time tt [°C] td [°C] ff [km/h] ff [knt] fx [km/h] fx [knt] dd ppp [hPa] vv [km] rr [mm]
20.10.2018 04:00:00 0,1 -1,8 3 1 4 2 W 1016,7 50 0,0
20.10.2018 03:00:00 0,8 -1,4 0 0 5 3 N 1016,7 50 0,0
20.10.2018 02:00:00 0,3 -2,2 3 2 4 2 SSE 1017,0 50 0,0
20.10.2018 01:00:00 1,5 -1,6 3 2 5 3 NNW 1017,0 50 0,0
20.10.2018 00:00:00 1,9 -1,0 5 3 6 4 W 1017,1 50 0,0
19.10.2018 23:00:00 0,5 -2,5 0 0 9 5 N 1017,0 50 0,0
19.10.2018 22:00:00 1,2 -2,4 4 2 9 5 NW 1016,9 50 0,0
19.10.2018 21:00:00 1,5 -2,6 3 2 16 8 N 1016,9 50 0,0
19.10.2018 20:00:00 3,0 -1,5 9 5 14 7 W 1016,5 50 0,0
19.10.2018 19:00:00 3,5 -1,3 8 4 14 8 W 1016,2 50 0,0
19.10.2018 18:00:00 3,8 -1,6 9 5 22 12 WNW 1016,1 50 0,0
19.10.2018 17:00:00 5,2 -1,3 5 3 26 14 W 1015,7 50 0,0
19.10.2018 16:00:00 7,0 -0,5 20 11 32 17 WNW 1014,8 50 0,0
19.10.2018 15:00:00 7,6 -0,1 19 10 38 21 WNW 1014,5 50 0,0
19.10.2018 14:00:00 7,7 0,0 28 15 38 21 WNW 1014,1 50 0,0
19.10.2018 13:00:00 7,5 0,2 24 13 42 23 WNW 1014,2 50 0,0
19.10.2018 12:00:00 7,1 0,3 24 13 39 21 WNW 1014,0 50 0,0
19.10.2018 11:00:00 6,4 0,3 19 10 32 17 W 1013,8 50 0,0
19.10.2018 10:00:00 5,6 0,4 18 10 34 18 W 1013,4 50 0,0
19.10.2018 09:00:00 4,9 0,3 22 12 35 19 W 1012,5 50 0,0
19.10.2018 08:00:00 4,4 0,0 16 9 30 16 W 1012,1 50 0,0
19.10.2018 07:00:00 4,7 0,1 21 11 36 19 W 1010,9 50 0,0
19.10.2018 06:00:00 4,9 0,1 26 14 39 21 W 1010,2 50 0,0
19.10.2018 05:00:00 5,0 0,2 24 13 45 24 W 1009,6 50 0,0
19.10.2018 04:00:00 4,9 -0,1 27 14 45 24 W 1009,0 50 0,0
19.10.2018 03:00:00 5,1 -0,1 26 14 38 21 W 1008,7 50 0,0
19.10.2018 02:00:00 5,2 -0,4 19 10 32 18 W 1008,2 50 0,0
19.10.2018 01:00:00 5,2 -0,4 21 11 37 20 W 1007,9 50 0,0
19.10.2018 00:00:00 5,0 -0,6 19 10 38 20 W 1007,6 50 0,0
18.10.2018 23:00:00 5,5 -0,8 20 11 39 21 W 1007,4 50 0,0
18.10.2018 22:00:00 5,6 -0,5 19 11 37 20 W 1006,9 50 0,0
18.10.2018 21:00:00 5,3 -0,1 13 7 36 19 WSW 1007,0 50 0,0
18.10.2018 20:00:00 5,2 -0,2 17 9 33 18 WSW 1006,8 50 0,0
18.10.2018 19:00:00 5,3 -0,1 16 8 36 20 SW 1006,6 50 0,0
18.10.2018 18:00:00 5,7 0,1 16 9 34 19 SW 1006,5 50 0,0
18.10.2018 17:00:00 5,6 0,2 17 9 39 21 SW 1006,4 50 0,0
18.10.2018 16:00:00 5,8 -0,7 16 8 35 19 WSW 1006,5 50 0,0
18.10.2018 15:00:00 6,6 -0,8 15 8 31 17 WSW 1006,7 50 0,0
18.10.2018 14:00:00 6,8 -0,7 18 10 37 20 W 1007,0 50 0,0
18.10.2018 13:00:00 6,8 -0,4 19 10 36 19 W 1007,0 50 0,0
18.10.2018 12:00:00 6,2 -0,1 15 8 28 15 WSW 1007,3 40 0,0
18.10.2018 11:00:00 5,5 0,1 16 9 31 17 WSW 1007,9 48 0,0
18.10.2018 10:00:00 5,1 -0,1 9 5 26 14 W 1008,0 43 0,0
18.10.2018 09:00:00 4,0 0,0 8 4 15 8 SSW 1008,3 43 0,0
18.10.2018 08:00:00 3,3 -0,7 6 4 26 14 NW 1008,2 50 0,0
18.10.2018 07:00:00 4,3 0,6 10 6 22 12 WSW 1007,8 50 0,0
18.10.2018 06:00:00 4,4 1,4 8 4 18 10 WSW 1008,1 50 0,0
18.10.2018 05:00:00 5,3 0,9 10 5 23 12 WSW 1008,0 50 0,0
18.10.2018 04:00:00 6,0 1,1 14 8 30 16 WSW 1008,0 50 0,0
18.10.2018 03:00:00 6,4 1,3 13 7 24 13 W 1008,1 50 0,0
18.10.2018 02:00:00 6,6 2,3 9 5 23 12 W 1008,1 50 0,0
18.10.2018 01:00:00 2,5 1,2 4 2 9 5 ESE 1008,9 50 0,0
18.10.2018 00:00:00 2,6 1,3 4 2 11 6 S 1008,8 50 0,0
17.10.2018 23:00:00 1,7 0,4 5 3 10 5 SE 1008,9 8 0,0
17.10.2018 22:00:00 3,2 1,6 4 2 12 7 SW 1008,5 50 0,0
17.10.2018 21:00:00 2,3 1,1 0 0 11 6 N 1008,3 3,5 0,0
17.10.2018 20:00:00 2,3 0,8 2 1 9 5 SE 1008,5 50 0,0
17.10.2018 19:00:00 3,4 1,8 5 3 9 5 SW 1008,4 50 0,2
17.10.2018 18:00:00 4,8 2,0 4 2 16 9 WSW 1008,4 48 0,0
17.10.2018 17:00:00 5,2 2,0 7 4 23 12 WSW 1008,2 50 0,0
17.10.2018 16:00:00 5,4 3,1 6 3 13 7 WSW 1008,3 20 0,0
17.10.2018 15:00:00 5,0 3,7 5 3 13 7 SSW 1009,0 7 0,0
17.10.2018 14:00:00 4,8 3,5 5 3 13 7 SSW 1009,4 7 0,0
17.10.2018 13:00:00 4,5 3,3 7 4 19 10 SSE 1010,1 3,7 0,0
17.10.2018 12:00:00 4,4 3,2 10 5 21 11 S 1010,3 4,6 0,0
17.10.2018 11:00:00 4,0 2,5 5 3 19 11 S 1011,3 10 0,0
17.10.2018 10:00:00 3,9 1,4 8 4 15 8 S 1011,7 50 0,0
17.10.2018 09:00:00 3,8 1,2 10 6 21 12 SSE 1011,8 50 0,0
17.10.2018 08:00:00 3,5 0,7 17 9 27 15 SSE 1011,7 50 0,0
17.10.2018 07:00:00 2,4 0,1 7 4 14 8 SE 1013,2 50 0,0
17.10.2018 06:00:00 1,6 0,0 11 6 14 8 ESE 1013,3 50 0,0
17.10.2018 05:00:00 1,8 0,0 10 6 18 10 E 1014,7 50 0,0
17.10.2018 04:00:00 2,1 0,3 14 8 18 10 ESE 1015,0 50 0,0
17.10.2018 03:00:00 2,2 0,6 10 5 16 9 SE 1015,9 50 0,0
17.10.2018 02:00:00 1,5 0,0 11 6 14 7 ESE 1016,5 50 0,0
17.10.2018 01:00:00 2,3 0,4 9 5 14 7 SSE 1016,8 50 0,0
17.10.2018 00:00:00 0,5 -1,3 4 2 10 5 SE 1017,5 50 0,0
16.10.2018 23:00:00 0,8 -1,3 6 3 10 5 ESE 1017,3 50 0,0
16.10.2018 22:00:00 1,5 -0,7 6 4 11 6 S 1018,0 50 0,0
16.10.2018 21:00:00 1,8 -1,5 2 1 10 5 SSE 1018,1 50 0,0
16.10.2018 20:00:00 3,8 -1,4 5 3 11 6 WSW 1017,7 50 0,0
16.10.2018 19:00:00 4,6 -1,2 4 2 13 7 S 1017,8 50 0,0
16.10.2018 18:00:00 4,4 -1,2 5 3 11 6 S 1017,6 50 0,0
16.10.2018 17:00:00 5,2 -0,8 6 3 20 11 WNW 1017,0 50 0,0
16.10.2018 16:00:00 6,2 -0,1 10 5 23 13 W 1016,4 50 0,0
16.10.2018 15:00:00 6,8 -0,5 10 5 28 15 W 1016,4 50 0,0
16.10.2018 14:00:00 6,6 0,1 18 10 30 16 W 1015,9 50 0,0
16.10.2018 13:00:00 6,4 -0,1 21 11 32 18 W 1015,8 50 0,0
16.10.2018 12:00:00 5,9 0,0 19 11 31 17 W 1015,0 50 0,0
16.10.2018 11:00:00 5,1 -0,3 17 9 29 16 WNW 1014,8 50 0,0
16.10.2018 10:00:00 4,8 -0,6 14 8 26 14 WNW 1014,2 50 0,0
16.10.2018 09:00:00 1,8 -0,9 11 6 17 9 WNW 1014,1 50 0,0
16.10.2018 08:00:00 -1,8 -3,8 4 2 13 7 E 1014,1 50 0,0
16.10.2018 07:00:00 -1,1 -2,7 3 1 6 3 N 1013,7 50 0,0
16.10.2018 06:00:00 -1,0 -2,6 4 2 8 4 WNW 1013,3 50 0,0
16.10.2018 05:00:00 -0,8 -2,7 5 3 8 4 NW 1013,2 50 0,0
16.10.2018 04:00:00 0,1 -1,5 6 4 9 5 WNW 1012,9 50 0,0
16.10.2018 03:00:00 1,0 -0,9 5 3 7 4 W 1012,8 50 0,0
16.10.2018 02:00:00 1,7 -0,2 4 2 10 5 WNW 1012,7 50 0,0
16.10.2018 01:00:00 2,1 0,3 9 5 10 6 NW 1012,4 50 0,0
16.10.2018 00:00:00 2,9 0,5 6 3 10 5 WNW 1012,5 50 0,0
15.10.2018 23:00:00 3,5 0,7 7 4 11 6 WNW 1012,5 50 0,0
15.10.2018 22:00:00 3,6 0,6 6 4 9 5 WNW 1012,5 50 0,0
15.10.2018 21:00:00 4,8 0,2 6 3 10 5 W 1012,8 50 0,0
15.10.2018 20:00:00 4,7 0,5 6 3 9 5 WNW 1012,8 50 -
15.10.2018 19:00:00 5,0 0,6 3 2 6 3 NW 1012,3 50 -
15.10.2018 18:00:00 5,5 0,3 3 2 7 4 WNW 1013,1 50 -
15.10.2018 17:00:00 6,1 0,4 7 4 13 7 NW 1012,5 50 -
15.10.2018 16:00:00 6,6 0,5 9 5 19 10 NNW 1012,4 50 -
15.10.2018 15:00:00 8,1 0,6 13 7 24 13 NW 1011,9 50 -
15.10.2018 14:00:00 7,7 0,4 14 8 25 13 NW 1011,9 50 -
15.10.2018 13:00:00 7,9 0,1 19 10 28 15 WNW 1011,5 50 -
15.10.2018 12:00:00 7,7 0,7 20 11 35 19 WNW 1010,9 50 -
15.10.2018 11:00:00 7,7 1,3 20 11 - - WNW 1010,0 50 -
15.10.2018 10:00:00 - - - - - - - - - -
15.10.2018 09:00:00 6,6 3,4 22 12 32 18 W 1007,6 50 0,0
15.10.2018 08:00:00 7,0 4,3 19 11 33 18 WNW 1006,2 50 0,0
15.10.2018 07:00:00 8,7 5,4 16 9 38 20 WNW 1004,9 50 0,0
15.10.2018 06:00:00 9,3 7,4 16 9 41 22 W 1003,6 50 0,0
15.10.2018 05:00:00 12,0 7,9 10 6 19 10 WSW 1001,8 45 0,0
15.10.2018 04:00:00 11,1 7,6 8 4 19 11 S 1001,4 46 0,0
15.10.2018 03:00:00 10,9 7,6 10 5 16 9 SSE 1001,5 40 0,0
15.10.2018 02:00:00 11,8 7,7 8 4 24 13 SSE 1001,4 50 0,0
15.10.2018 01:00:00 13,2 8,1 12 6 28 15 S 1000,9 50 0,0
15.10.2018 00:00:00 13,5 8,8 17 9 29 16 S 1001,0 50 0,0
14.10.2018 23:00:00 13,8 9,4 13 7 25 14 S 1001,3 50 0,0
14.10.2018 22:00:00 14,6 9,4 12 6 32 17 S 1001,4 50 0,0
14.10.2018 21:00:00 15,5 9,6 16 9 34 18 S 1001,4 50 0,0
14.10.2018 20:00:00 16,1 10,0 17 9 32 18 S 1001,2 50 0,0
14.10.2018 19:00:00 16,6 10,2 14 8 32 18 S 1001,3 50 0,0
14.10.2018 18:00:00 17,0 11,1 14 8 30 16 S 1002,1 50 0,0
14.10.2018 17:00:00 17,5 11,5 13 7 32 18 S 1002,4 50 0,0
14.10.2018 16:00:00 18,6 12,1 11 6 35 19 S 1002,8 50 0,0
14.10.2018 15:00:00 19,1 12,6 13 7 25 14 SSE 1003,0 41 0,0
14.10.2018 14:00:00 19,1 12,4 9 5 28 15 S 1003,3 41 0,0
14.10.2018 13:00:00 19,3 12,3 18 10 33 18 SSW 1003,1 50 0,0
14.10.2018 12:00:00 18,2 12,6 9 5 29 16 SSW 1003,7 45 0,0
14.10.2018 11:00:00 15,9 12,1 15 8 34 18 S 1004,0 40 0,0
14.10.2018 10:00:00 15,2 12,5 12 6 23 12 ESE 1004,4 50 0,0
14.10.2018 09:00:00 13,5 11,9 11 6 22 12 E 1004,7 50 0,0
14.10.2018 08:00:00 12,6 11,3 13 7 20 11 ESE 1004,7 48 0,0
14.10.2018 07:00:00 13,2 11,8 14 8 25 14 E 1004,7 50 0,0
14.10.2018 06:00:00 12,5 11,4 16 9 22 12 E 1005,0 42 0,0
14.10.2018 05:00:00 12,0 11,4 14 8 20 11 E 1005,5 24 0,0
14.10.2018 04:00:00 12,3 11,4 13 7 27 15 SSE 1005,1 30 0,0

tt = Température de l'air
td = dewpoint
ff = Vitesse du vent
fx = gusts
dd = Direction du vent
ppp = reduced air pressure
vv = visibility
rr = Quantités de précipitations

stations d'obs. à proximité